This demonstration page uses our WeatherBlox Daily Observations layout. Learn more.

Left ArrowRight Arrow

31.84235, -102.49876

Hourly Observations for June 14, 2022

Temp ( °F °C ) Dew Point ( °F °C ) Humidity (%) Winds ( mph kmh ) Pressure ( in mb ) Visibility ( mi km ) Precip ( " mm )
12:53 am 00:53 Clear 86 30 49 9.4 28 28 S 17 28 29.67 1005 10 16 0.00 0.00
1:53 am 01:53 Clear 85 29.4 54 12.2 35 35 S 24 39 29.67 1005 10 16 0.00 0.00
2:53 am 02:53 Clear 83 28.3 59 15 44 44 S 26 43 29.68 1005 8 13 0.00 0.00
3:53 am 03:53 Clear 80 26.7 61 16.1 52 52 S 25 41 29.67 1005 10 16 0.00 0.00
4:53 am 04:53 Clear 79 26.1 63 17.2 58 58 S 20 31 29.66 1004 10 16 0.00 0.00
5:53 am 05:53 Clear 78 25.6 64 17.8 62 62 S 21 33 29.67 1005 10 16 0.00 0.00
6:53 am 06:53 Sunny 76 24.4 64 17.8 67 67 S 20 31 29.69 1005 10 16 0.00 0.00
7:53 am 07:53 Sunny 76 24.4 64 17.8 67 67 S 22 35 29.71 1006 9 14 0.00 0.00
8:53 am 08:53 Sunny 78 25.6 65 18.3 64 64 S 21 33 29.72 1006 9 14 0.00 0.00
9:53 am 09:53 Sunny 81 27.2 65 18.3 58 58 S 17 28 29.73 1007 10 16 0.00 0.00
10:53 am 10:53 Sunny 85 29.4 64 17.8 50 50 SSW 18 30 29.72 1007 10 16 0.00 0.00
11:53 am 11:53 Sunny 88 31.1 63 17.2 43 43 S 14 22 29.72 1007 10 16 0.00 0.00
12:53 pm 12:53 Sunny 92 33.3 60 15.6 34 34 VRB 5 7 29.72 1006 10 16 0.00 0.00
1:53 pm 13:53 Sunny 96 35.6 58 14.4 28 28 VRB 3 6 29.70 1006 10 16 0.00 0.00
2:53 pm 14:53 Sunny 97 36.1 57 13.9 26 26 undefined N/A 29.69 1005 10 16 0.00 0.00
3:53 pm 15:53 Sunny 100 37.8 53 11.7 21 21 VRB 5 7 29.67 1005 10 16 0.00 0.00
4:53 pm 16:53 Sunny 100 37.8 52 11.1 20 20 SSE 7 11 29.64 1004 10 16 0.00 0.00
5:53 pm 17:53 Sunny 101 38.3 56 13.3 22 22 SE 15 24 29.62 1003 10 16 0.00 0.00
6:53 pm 18:53 Sunny 99 37.2 57 13.9 25 25 SSE 21 33 29.62 1003 10 16 0.00 0.00
7:53 pm 19:53 Sunny 95 35 56 13.3 27 27 S 22 35 29.65 1004 10 16 0.00 0.00
8:22 pm 20:22 Mostly Cloudy with Haze 88 31.1 55 12.8 33 33 WSW 25 41 29.63 1003 3 4 0.00 0.00
8:36 pm 20:36 Mostly Cloudy with Haze 86 30 57 13.9 37 37 WSW 17 28 29.64 1004 4 6 0.00 0.00
8:53 pm 20:53 Mostly Sunny 87 30.6 56 13.3 35 35 WSW 15 24 29.70 1006 10 16 0.00 0.00
9:09 pm 21:09 Clear with Nearby Thunderstorms 86 30 57 13.9 37 37 WSW 13 20 29.65 1004 10 16 0.00 0.00
9:28 pm 21:28 Clear 86 30 57 13.9 37 37 SSW 12 19 29.64 1004 10 16 0.00 0.00
9:53 pm 21:53 Clear 86 30 56 13.3 36 36 S 10 17 29.70 1006 10 16 0.00 0.00
10:53 pm 22:53 Clear 86 30 60 15.6 42 42 S 21 33 29.71 1006 10 16 0.00 0.00
11:53 pm 23:53 Clear 86 30 60 15.6 42 42 S 25 41 29.72 1006 10 16 0.00 0.00

Powered by AerisWeather